• In Belgien
  • Länderverzeichnis
  • Für 7 Tage
  • Wassertemperatur
  • Satellitenkarten
  • Wetterkarte
  • Widgets
  • user-avatar
    Anmelden

    Stündliche Wetter Kalgoorlie

    Heute, 25 April, Mittwoch

    Zeit Temperatur Niederschläge Wind Luftdruck Luftfeuchtigkeit
    00:00 +17°C° 0 mm 5 m/S 732 mmHg 59%
    01:00 +17°C° 0 mm 5 m/S 732 mmHg 61%
    02:00 +17°C° 0 mm 4 m/S 732 mmHg 65%
    03:00 +17°C° 0 mm 4 m/S 732 mmHg 66%
    04:00 +15°C° 0 mm 4 m/S 732 mmHg 67%
    05:00 +15°C° 0 mm 4 m/S 732 mmHg 69%
    06:00 +15°C° 0 mm 4 m/S 733 mmHg 66%
    07:00 +16°C° 0 mm 5 m/S 733 mmHg 64%
    08:00 +17°C° 0 mm 6 m/S 733 mmHg 61%
    09:00 +19°C° 0 mm 5 m/S 733 mmHg 55%
    10:00 +21°C° 0 mm 5 m/S 733 mmHg 49%
    11:00 +22°C° 0 mm 5 m/S 733 mmHg 42%
    12:00 +23°C° 0 mm 5 m/S 732 mmHg 39%
    13:00 +25°C° 0 mm 5 m/S 732 mmHg 35%
    14:00 +25°C° 0 mm 4 m/S 731 mmHg 32%
    15:00 +25°C° 0 mm 4 m/S 731 mmHg 33%
    16:00 +25°C° 0 mm 4 m/S 732 mmHg 33%
    17:00 +23°C° 0 mm 5 m/S 732 mmHg 33%
    18:00 +22°C° 0 mm 5 m/S 732 mmHg 35%
    19:00 +21°C° 0 mm 5 m/S 732 mmHg 37%
    20:00 +21°C° 0 mm 5 m/S 732 mmHg 39%
    21:00 +20°C° 0 mm 5 m/S 732 mmHg 41%
    22:00 +19°C° 0 mm 5 m/S 732 mmHg 43%
    23:00 +19°C° 0 mm 6 m/S 732 mmHg 44%

    Morgen, 26 April, Donnerstag

    Zeit Temperatur Niederschläge Wind Luftdruck Luftfeuchtigkeit
    00:00 +19°C° 0 mm 6 m/S 732 mmHg 46%
    01:00 +17°C° 0 mm 6 m/S 732 mmHg 47%
    02:00 +17°C° 0 mm 6 m/S 732 mmHg 49%
    03:00 +16°C° 0 mm 6 m/S 732 mmHg 52%
    04:00 +16°C° 0 mm 6 m/S 732 mmHg 55%
    05:00 +16°C° 0 mm 6 m/S 732 mmHg 58%
    06:00 +16°C° 0 mm 6 m/S 732 mmHg 58%
    07:00 +17°C° 0 mm 7 m/S 732 mmHg 57%
    08:00 +17°C° 0 mm 7 m/S 732 mmHg 56%
    09:00 +20°C° 0 mm 8 m/S 732 mmHg 51%
    10:00 +22°C° 0 mm 8 m/S 732 mmHg 45%
    11:00 +24°C° 0 mm 8 m/S 732 mmHg 40%
    12:00 +26°C° 0 mm 7 m/S 731 mmHg 38%
    13:00 +27°C° 0 mm 7 m/S 730 mmHg 37%
    14:00 +28°C° 0 mm 6 m/S 730 mmHg 35%
    15:00 +27°C° 0 mm 6 m/S 730 mmHg 36%
    16:00 +27°C° 0 mm 5 m/S 730 mmHg 37%
    17:00 +27°C° 0 mm 4 m/S 730 mmHg 38%
    18:00 +26°C° 0 mm 4 m/S 730 mmHg 41%
    19:00 +25°C° 0 mm 4 m/S 730 mmHg 44%
    20:00 +24°C° 0 mm 3 m/S 731 mmHg 47%
    21:00 +23°C° 0 mm 4 m/S 731 mmHg 48%
    22:00 +23°C° 0 mm 4 m/S 731 mmHg 50%
    23:00 +22°C° 0 mm 4 m/S 731 mmHg 52%

    übermorgen, 27 April, Freitag

    Zeit Temperatur Niederschläge Wind Luftdruck Luftfeuchtigkeit
    00:00 +22°C° 0 mm 4 m/S 730 mmHg 54%
    01:00 +22°C° 0 mm 4 m/S 730 mmHg 55%
    02:00 +22°C° 0 mm 4 m/S 730 mmHg 56%
    03:00 +21°C° 0 mm 4 m/S 730 mmHg 58%
    04:00 +21°C° 0 mm 4 m/S 730 mmHg 60%
    05:00 +21°C° 0 mm 4 m/S 730 mmHg 61%
    06:00 +21°C° 0,1 mm 4 m/S 731 mmHg 62%
    07:00 +21°C° 0,1 mm 4 m/S 731 mmHg 62%
    08:00 +21°C° 0,1 mm 5 m/S 731 mmHg 62%
    09:00 +22°C° 0,4 mm 4 m/S 732 mmHg 59%
    10:00 +23°C° 0,4 mm 4 m/S 732 mmHg 56%
    11:00 +25°C° 0,4 mm 4 m/S 732 mmHg 53%
    12:00 +26°C° 0 mm 4 m/S 732 mmHg 50%
    13:00 +27°C° 0 mm 4 m/S 731 mmHg 46%
    14:00 +28°C° 0 mm 4 m/S 731 mmHg 43%
    15:00 +28°C° 0 mm 4 m/S 731 mmHg 43%
    16:00 +28°C° 0 mm 4 m/S 731 mmHg 43%
    17:00 +27°C° 0 mm 4 m/S 731 mmHg 43%
    18:00 +26°C° 0 mm 4 m/S 732 mmHg 46%
    19:00 +25°C° 0 mm 4 m/S 732 mmHg 50%
    20:00 +23°C° 0 mm 4 m/S 733 mmHg 54%
    21:00 +22°C° 0,1 mm 4 m/S 733 mmHg 58%
    22:00 +21°C° 0,1 mm 5 m/S 733 mmHg 61%
    23:00 +21°C° 0,1 mm 5 m/S 734 mmHg 65%

    28 April, Samstag

    Zeit Temperatur Niederschläge Wind Luftdruck Luftfeuchtigkeit
    00:00 +20°C° 0 mm 5 m/S 734 mmHg 69%
    01:00 +19°C° 0 mm 6 m/S 734 mmHg 72%
    02:00 +17°C° 0 mm 6 m/S 734 mmHg 76%
    03:00 +17°C° 0 mm 6 m/S 734 mmHg 79%
    04:00 +17°C° 0 mm 6 m/S 735 mmHg 83%
    05:00 +16°C° 0 mm 6 m/S 735 mmHg 86%
    06:00 +16°C° 0 mm 6 m/S 736 mmHg 84%
    07:00 +17°C° 0 mm 7 m/S 736 mmHg 83%
    08:00 +17°C° 0 mm 7 m/S 737 mmHg 81%
    09:00 +20°C° 0 mm 7 m/S 737 mmHg 72%
    10:00 +22°C° 0 mm 7 m/S 737 mmHg 63%
    11:00 +24°C° 0 mm 7 m/S 737 mmHg 54%
    12:00 +26°C° 0 mm 7 m/S 736 mmHg 48%
    13:00 +27°C° 0 mm 7 m/S 735 mmHg 42%
    14:00 +28°C° 0 mm 7 m/S 735 mmHg 37%
    15:00 +28°C° 0 mm 6 m/S 735 mmHg 38%
    16:00 +27°C° 0 mm 6 m/S 735 mmHg 39%
    17:00 +27°C° 0 mm 5 m/S 735 mmHg 39%
    18:00 +26°C° 0 mm 5 m/S 736 mmHg 42%
    19:00 +25°C° 0 mm 5 m/S 736 mmHg 44%
    20:00 +23°C° 0 mm 5 m/S 737 mmHg 47%
    21:00 +22°C° 0 mm 5 m/S 737 mmHg 46%
    22:00 +22°C° 0 mm 5 m/S 737 mmHg 46%
    23:00 +21°C° 0 mm 5 m/S 737 mmHg 46%

    29 April, Sonntag

    Zeit Temperatur Niederschläge Wind Luftdruck Luftfeuchtigkeit
    00:00 +20°C° 0 mm 5 m/S 737 mmHg 49%
    01:00 +20°C° 0 mm 5 m/S 737 mmHg 51%
    02:00 +19°C° 0 mm 5 m/S 737 mmHg 54%
    03:00 +17°C° 0 mm 5 m/S 737 mmHg 57%
    04:00 +17°C° 0 mm 5 m/S 737 mmHg 60%
    05:00 +16°C° 0 mm 5 m/S 737 mmHg 63%
    06:00 +17°C° 0 mm 5 m/S 737 mmHg 62%
    07:00 +17°C° 0 mm 6 m/S 738 mmHg 60%
    08:00 +17°C° 0 mm 7 m/S 738 mmHg 58%
    09:00 +20°C° 0 mm 7 m/S 738 mmHg 51%
    10:00 +22°C° 0 mm 7 m/S 738 mmHg 44%
    11:00 +24°C° 0 mm 8 m/S 737 mmHg 37%
    12:00 +26°C° 0 mm 7 m/S 737 mmHg 34%
    13:00 +26°C° 0 mm 7 m/S 736 mmHg 31%
    14:00 +27°C° 0 mm 7 m/S 735 mmHg 29%
    15:00 +27°C° 0 mm 6 m/S 735 mmHg 29%
    16:00 +26°C° 0 mm 6 m/S 735 mmHg 30%
    17:00 +25°C° 0 mm 5 m/S 735 mmHg 31%
    18:00 +23°C° 0 mm 5 m/S 735 mmHg 33%
    19:00 +22°C° 0 mm 4 m/S 736 mmHg 35%
    20:00 +21°C° 0 mm 4 m/S 736 mmHg 37%
    21:00 +21°C° 0 mm 4 m/S 736 mmHg 38%
    22:00 +20°C° 0 mm 4 m/S 735 mmHg 38%
    23:00 +20°C° 0 mm 4 m/S 735 mmHg 39%

    30 April, Montag

    Zeit Temperatur Niederschläge Wind Luftdruck Luftfeuchtigkeit
    00:00 +19°C° 0 mm 4 m/S 735 mmHg 41%
    01:00 +19°C° 0 mm 4 m/S 735 mmHg 42%
    02:00 +18°C° 0 mm 4 m/S 734 mmHg 44%
    03:00 +17°C° 0 mm 5 m/S 734 mmHg 47%
    04:00 +17°C° 0 mm 5 m/S 734 mmHg 50%
    05:00 +17°C° 0 mm 5 m/S 734 mmHg 53%
    06:00 +17°C° 0 mm 6 m/S 734 mmHg 53%
    07:00 +18°C° 0 mm 7 m/S 734 mmHg 52%
    08:00 +20°C° 0 mm 7 m/S 734 mmHg 51%
    09:00 +22°C° 0 mm 7 m/S 734 mmHg 46%
    10:00 +24°C° 0 mm 7 m/S 733 mmHg 41%
    11:00 +26°C° 0 mm 8 m/S 733 mmHg 35%
    12:00 +28°C° 0 mm 7 m/S 732 mmHg 32%
    13:00 +29°C° 0 mm 7 m/S 732 mmHg 29%
    14:00 +30°C° 0 mm 7 m/S 731 mmHg 26%
    15:00 +29°C° 0 mm 6 m/S 730 mmHg 27%
    16:00 +29°C° 0 mm 5 m/S 730 mmHg 27%
    17:00 +28°C° 0 mm 4 m/S 730 mmHg 27%
    18:00 +28°C° 0 mm 5 m/S 730 mmHg 29%
    19:00 +27°C° 0 mm 5 m/S 730 mmHg 30%
    20:00 +26°C° 0 mm 5 m/S 730 mmHg 31%
    21:00 +25°C° 0 mm 5 m/S 729 mmHg 32%
    22:00 +25°C° 0 mm 5 m/S 729 mmHg 33%
    23:00 +23°C° 0 mm 5 m/S 728 mmHg 34%
    Mehr zeigen